When you browse on this site, cookies collect data to enhance your experience and personalize the content and advertising you see.
Visit our Privacy Policy to learn more. By continuing to use the site, you agree to this use of cookies and data.
  • In United Kingdom
  • List of Countries
  • For 7 days
  • Water Temperature
  • Satellite Maps
  • Weather Map
  • Weather Widgets
  • user-avatar
    Login

    Hourly Weather A'ali

    Today, 19 May, Sunday

    Time Temperature Precipitation Wind Pressure Humidity
    00:00 +33°C° 0 mm 5 mps 752 mmHg 48%
    01:00 +33°C° 0 mm 4 mps 752 mmHg 46%
    02:00 +34°C° 0 mm 3 mps 752 mmHg 45%
    03:00 +34°C° 0 mm 7 mps 753 mmHg 33%
    04:00 +34°C° 0 mm 7 mps 753 mmHg 37%
    05:00 +33°C° 0 mm 8 mps 753 mmHg 40%
    06:00 +33°C° 0 mm 9 mps 754 mmHg 43%
    07:00 +33°C° 0 mm 9 mps 754 mmHg 44%
    08:00 +33°C° 0 mm 8 mps 754 mmHg 44%
    09:00 +32°C° 0 mm 8 mps 755 mmHg 48%
    10:00 +33°C° 0 mm 7 mps 755 mmHg 43%
    11:00 +35°C° 0 mm 7 mps 754 mmHg 38%
    12:00 +36°C° 0 mm 6 mps 754 mmHg 33%
    13:00 +36°C° 0 mm 6 mps 754 mmHg 32%
    14:00 +38°C° 0 mm 6 mps 754 mmHg 32%
    15:00 +39°C° 0 mm 6 mps 753 mmHg 30%
    16:00 +36°C° 0 mm 6 mps 753 mmHg 34%
    17:00 +35°C° 0 mm 6 mps 753 mmHg 39%
    18:00 +34°C° 0 mm 6 mps 753 mmHg 44%
    19:00 +33°C° 0 mm 6 mps 753 mmHg 45%
    20:00 +33°C° 0 mm 5 mps 754 mmHg 45%
    21:00 +33°C° 0 mm 4 mps 754 mmHg 46%
    22:00 +32°C° 0 mm 4 mps 754 mmHg 46%
    23:00 +32°C° 0 mm 4 mps 754 mmHg 47%

    Tomorrow, 20 May, Monday

    Time Temperature Precipitation Wind Pressure Humidity
    00:00 +31°C° 0 mm 3 mps 754 mmHg 47%
    01:00 +31°C° 0 mm 3 mps 754 mmHg 48%
    02:00 +30°C° 0 mm 3 mps 753 mmHg 49%
    03:00 +30°C° 0 mm 2 mps 753 mmHg 50%
    04:00 +30°C° 0 mm 2 mps 754 mmHg 50%
    05:00 +30°C° 0 mm 2 mps 754 mmHg 49%
    06:00 +31°C° 0 mm 1 mps 754 mmHg 49%
    07:00 +31°C° 0 mm 1 mps 754 mmHg 46%
    08:00 +32°C° 0 mm 2 mps 755 mmHg 44%
    09:00 +34°C° 0 mm 2 mps 755 mmHg 42%
    10:00 +35°C° 0 mm 2 mps 755 mmHg 40%
    11:00 +35°C° 0 mm 2 mps 755 mmHg 38%
    12:00 +36°C° 0 mm 2 mps 755 mmHg 36%
    13:00 +36°C° 0 mm 3 mps 755 mmHg 36%
    14:00 +36°C° 0 mm 3 mps 754 mmHg 37%
    15:00 +37°C° 0 mm 3 mps 754 mmHg 37%
    16:00 +36°C° 0 mm 4 mps 754 mmHg 40%
    17:00 +35°C° 0 mm 4 mps 754 mmHg 44%
    18:00 +34°C° 0 mm 5 mps 754 mmHg 47%
    19:00 +34°C° 0 mm 4 mps 754 mmHg 48%
    20:00 +33°C° 0 mm 3 mps 754 mmHg 49%
    21:00 +32°C° 0 mm 2 mps 754 mmHg 50%
    22:00 +32°C° 0 mm 1 mps 754 mmHg 49%
    23:00 +32°C° 0 mm 1 mps 754 mmHg 48%

    Day after tomorrow, 21 May, Tuesday

    Time Temperature Precipitation Wind Pressure Humidity
    00:00 +32°C° 0 mm 1 mps 754 mmHg 48%
    01:00 +31°C° 0 mm 1 mps 754 mmHg 48%
    02:00 +31°C° 0 mm 2 mps 754 mmHg 48%
    03:00 +31°C° 0 mm 2 mps 754 mmHg 49%
    04:00 +31°C° 0 mm 2 mps 754 mmHg 49%
    05:00 +31°C° 0 mm 1 mps 754 mmHg 48%
    06:00 +32°C° 0 mm 1 mps 755 mmHg 48%
    07:00 +34°C° 0 mm 2 mps 755 mmHg 45%
    08:00 +35°C° 0 mm 3 mps 756 mmHg 42%
    09:00 +36°C° 0 mm 4 mps 756 mmHg 39%
    10:00 +37°C° 0 mm 3 mps 756 mmHg 36%
    11:00 +38°C° 0 mm 3 mps 756 mmHg 33%
    12:00 +39°C° 0 mm 2 mps 756 mmHg 30%
    13:00 +39°C° 0 mm 3 mps 755 mmHg 30%
    14:00 +39°C° 0 mm 3 mps 755 mmHg 29%
    15:00 +41°C° 0 mm 4 mps 755 mmHg 28%
    16:00 +40°C° 0 mm 4 mps 755 mmHg 30%
    17:00 +38°C° 0 mm 4 mps 754 mmHg 32%
    18:00 +37°C° 0 mm 4 mps 754 mmHg 34%
    19:00 +37°C° 0 mm 4 mps 755 mmHg 35%
    20:00 +36°C° 0 mm 3 mps 755 mmHg 37%
    21:00 +35°C° 0 mm 3 mps 755 mmHg 38%
    22:00 +35°C° 0 mm 3 mps 755 mmHg 39%
    23:00 +35°C° 0 mm 3 mps 755 mmHg 39%

    22 May, Wednesday

    Time Temperature Precipitation Wind Pressure Humidity
    00:00 +34°C° 0 mm 3 mps 755 mmHg 39%
    01:00 +34°C° 0 mm 3 mps 755 mmHg 41%
    02:00 +34°C° 0 mm 4 mps 755 mmHg 42%
    03:00 +34°C° 0 mm 4 mps 754 mmHg 44%
    04:00 +34°C° 0 mm 4 mps 755 mmHg 42%
    05:00 +34°C° 0 mm 4 mps 755 mmHg 40%
    06:00 +35°C° 0 mm 3 mps 755 mmHg 38%
    07:00 +35°C° 0 mm 3 mps 756 mmHg 35%
    08:00 +36°C° 0 mm 2 mps 756 mmHg 32%
    09:00 +37°C° 0 mm 2 mps 756 mmHg 30%
    10:00 +37°C° 0 mm 1 mps 756 mmHg 28%
    11:00 +39°C° 0 mm 1 mps 756 mmHg 26%
    12:00 +40°C° 0 mm 1 mps 756 mmHg 24%
    13:00 +40°C° 0 mm 1 mps 755 mmHg 22%
    14:00 +41°C° 0 mm 2 mps 755 mmHg 20%
    15:00 +42°C° 0 mm 3 mps 754 mmHg 19%
    16:00 +40°C° 0 mm 4 mps 754 mmHg 24%
    17:00 +37°C° 0 mm 5 mps 754 mmHg 30%
    18:00 +35°C° 0 mm 6 mps 755 mmHg 36%
    19:00 +35°C° 0 mm 5 mps 755 mmHg 35%
    20:00 +35°C° 0 mm 3 mps 755 mmHg 34%
    21:00 +35°C° 0 mm 2 mps 755 mmHg 34%
    22:00 +35°C° 0 mm 2 mps 755 mmHg 32%
    23:00 +33°C° 0 mm 1 mps 755 mmHg 30%

    23 May, Thursday

    Time Temperature Precipitation Wind Pressure Humidity
    00:00 +33°C° 0 mm 1 mps 754 mmHg 28%
    01:00 +33°C° 0 mm 1 mps 754 mmHg 27%
    02:00 +34°C° 0 mm 2 mps 754 mmHg 26%
    03:00 +34°C° 0 mm 3 mps 753 mmHg 26%
    04:00 +34°C° 0 mm 3 mps 754 mmHg 26%
    05:00 +35°C° 0 mm 4 mps 754 mmHg 27%
    06:00 +35°C° 0 mm 4 mps 754 mmHg 27%
    07:00 +36°C° 0 mm 4 mps 754 mmHg 24%
    08:00 +38°C° 0 mm 4 mps 755 mmHg 20%
    09:00 +40°C° 0 mm 4 mps 755 mmHg 17%
    10:00 +42°C° 0 mm 3 mps 755 mmHg 15%
    11:00 +43°C° 0 mm 3 mps 754 mmHg 14%
    12:00 +43°C° 0 mm 2 mps 754 mmHg 13%
    13:00 +43°C° 0 mm 3 mps 754 mmHg 14%
    14:00 +43°C° 0 mm 4 mps 753 mmHg 15%
    15:00 +42°C° 0 mm 5 mps 753 mmHg 17%
    16:00 +41°C° 0 mm 5 mps 753 mmHg 21%
    17:00 +38°C° 0 mm 4 mps 753 mmHg 25%
    18:00 +36°C° 0 mm 4 mps 753 mmHg 30%
    19:00 +36°C° 0 mm 3 mps 754 mmHg 29%
    20:00 +36°C° 0 mm 2 mps 754 mmHg 28%
    21:00 +35°C° 0 mm 1 mps 754 mmHg 28%
    22:00 +34°C° 0 mm 1 mps 754 mmHg 27%
    23:00 +34°C° 0 mm 1 mps 754 mmHg 26%

    24 May, Friday

    Time Temperature Precipitation Wind Pressure Humidity
    00:00 +34°C° 0 mm 1 mps 754 mmHg 26%
    01:00 +35°C° 0 mm 2 mps 753 mmHg 26%
    02:00 +35°C° 0 mm 2 mps 753 mmHg 26%
    03:00 +34°C° 0 mm 3 mps 753 mmHg 27%
    04:00 +35°C° 0 mm 3 mps 753 mmHg 26%
    05:00 +35°C° 0 mm 3 mps 754 mmHg 25%
    06:00 +35°C° 0 mm 3 mps 754 mmHg 24%
    07:00 +37°C° 0 mm 3 mps 754 mmHg 22%
    08:00 +38°C° 0 mm 3 mps 755 mmHg 20%
    09:00 +39°C° 0 mm 3 mps 755 mmHg 17%
    10:00 +40°C° 0 mm 3 mps 755 mmHg 16%
    11:00 +41°C° 0 mm 2 mps 754 mmHg 15%
    12:00 +42°C° 0 mm 2 mps 754 mmHg 14%
    13:00 +43°C° 0 mm 3 mps 754 mmHg 16%
    14:00 +42°C° 0 mm 4 mps 753 mmHg 18%
    15:00 +42°C° 0 mm 5 mps 753 mmHg 19%
    16:00 +40°C° 0 mm 4 mps 753 mmHg 22%
    17:00 +38°C° 0 mm 4 mps 753 mmHg 25%
    18:00 +37°C° 0 mm 3 mps 754 mmHg 28%
    19:00 +36°C° 0 mm 3 mps 754 mmHg 29%
    20:00 +36°C° 0 mm 2 mps 754 mmHg 31%
    21:00 +35°C° 0 mm 2 mps 755 mmHg 32%
    22:00 +34°C° 0 mm 1 mps 754 mmHg 33%
    23:00 +33°C° 0 mm 1 mps 754 mmHg 34%
    Show more